EW6320 Weather Reports


Display with metric or nautical units.
time (UTC)temp
F
wind
direction
speed
MPH
gust
MPH
rain 1hr
in
rain 24hr
in
rain mn
in
humidity
%
barometer
mb
20260504130729 63 141 2.0 8.0 0.00 0.09 0.09 71 1008.7
20260504120213 60 161 3.0 8.0 0.00 0.09 0.09 76 1009.0
20260504110446 58 165 2.0 5.0 0.00 0.09 0.09 80 1008.9
20260504110206 58 151 2.0 7.0 0.00 0.09 0.09 81 1008.9
20260504100431 56 117 1.0 3.0 0.00 0.09 0.09 88 1009.0
20260504100154 56 137 1.0 3.0 0.00 0.09 0.09 88 1009.2
20260504090134 58 138 1.0 3.0 0.00 0.09 0.09 81 1009.1
20260504081851 57 152 2.0 4.0 0.00 0.09 0.09 87 1009.3
20260504081352 56 157 1.0 3.0 0.00 0.09 0.09 88 1009.4
20260504080851 56 137 0.0 2.0 0.00 0.09 0.09 88 1009.6
20260504080351 57 109 0.0 2.0 0.00 0.09 0.09 88 1009.9
20260504070337 60 134 2.0 9.0 0.09 0.09 0.09 75 1009.7
20260504050745 63 149 1.0 6.0 0.00 0.00 0.00 64 1008.5
20260504050248 62 175 1.0 7.0 0.00 0.00 0.00 63 1008.6
20260504050003 62 140 1.0 7.0 0.00 0.00 0.00 63 1008.8
20260504045242 62 215 2.0 8.0 0.00 0.00 0.00 63 1008.9
20260504044738 62 188 2.0 8.0 0.00 0.00 0.00 63 1008.9
20260504044237 62 181 2.0 8.0 0.00 0.00 0.00 63 1009.0
20260504043737 62 150 1.0 8.0 0.00 0.00 0.00 62 1009.1
20260504043233 62 174 2.0 8.0 0.00 0.00 0.00 62 1009.2
20260504042731 62 198 2.0 8.0 0.00 0.00 0.00 62 1009.3
20260504042231 62 153 2.0 7.0 0.00 0.00 0.00 62 1009.4
20260504041727 62 281 2.0 7.0 0.00 0.00 0.00 61 1009.4
20260504041225 62 210 2.0 9.0 0.00 0.00 0.00 60 1009.4
20260504040724 62 170 2.0 9.0 0.00 0.00 0.00 60 1009.5
20260504040442 62 185 2.0 7.0 0.00 0.00 0.00 60 1009.6
20260504035719 62 196 2.0 9.0 0.00 0.00 0.00 59 1009.7
20260504035223 62 279 2.0 9.0 0.00 0.00 0.00 59 1009.7
20260504034717 62 168 2.0 8.0 0.00 0.00 0.00 59 1009.7
20260504034217 63 182 3.0 11.0 0.00 0.00 0.00 59 1009.6
20260504033711 63 198 2.0 11.0 0.00 0.00 0.00 59 1009.7
20260504033211 63 180 2.0 8.0 0.00 0.00 0.00 59 1009.6
20260504032710 63 166 3.0 8.0 0.00 0.00 0.00 58 1009.7
20260504032205 63 160 3.0 9.0 0.00 0.00 0.00 58 1009.6
20260504031705 63 145 4.0 11.0 0.00 0.00 0.00 57 1009.5
20260504031426 63 157 3.0 11.0 0.00 0.00 0.00 57 1009.6
20260504031147 63 161 3.0 10.0 0.00 0.00 0.00 57 1009.6
20260504030159 63 134 3.0 10.0 0.00 0.00 0.00 57 1009.7
20260504025659 63 156 4.0 9.0 0.00 0.00 0.00 56 1009.7
20260504025413 63 186 3.0 9.0 0.00 0.00 0.00 56 1009.8
20260504024913 63 169 3.0 8.0 0.00 0.00 0.00 56 1009.8
20260504024153 64 155 3.0 8.0 0.00 0.00 0.00 56 1009.8
20260504023647 64 180 3.0 11.0 0.00 0.00 0.00 55 1009.9
20260504023147 64 161 4.0 11.0 0.00 0.00 0.00 55 1009.9
20260504022905 64 143 5.0 11.0 0.00 0.00 0.00 55 1010.0
20260504022141 64 173 5.0 11.0 0.00 0.00 0.00 55 1009.9
20260504021640 64 90 4.0 10.0 0.00 0.00 0.00 54 1010.0
20260504021141 64 105 4.0 10.0 0.00 0.00 0.00 54 1009.9
20260504020639 64 165 4.0 15.0 0.00 0.00 0.00 54 1009.8
20260504020139 64 145 4.0 15.0 0.00 0.00 0.00 54 1009.8
20260504015639 64 198 4.0 12.0 0.00 0.00 0.00 54 1009.6
20260504015139 64 148 4.0 12.0 0.00 0.00 0.00 54 1009.7
20260504014633 64 211 4.0 12.0 0.00 0.00 0.00 53 1009.7
20260504014352 65 155 4.0 12.0 0.00 0.00 0.00 53 1009.6
20260504013632 65 180 4.0 12.0 0.00 0.00 0.00 53 1009.5
20260504013351 65 174 4.0 12.0 0.00 0.00 0.00 53 1009.6
20260504012630 65 158 5.0 12.0 0.00 0.00 0.00 53 1009.6
20260504012134 65 172 5.0 12.0 0.00 0.00 0.00 52 1009.7
20260504011630 65 149 4.0 10.0 0.00 0.00 0.00 53 1009.6
20260504011131 65 163 3.0 9.0 0.00 0.00 0.00 53 1009.7
20260504010631 65 163 3.0 9.0 0.00 0.00 0.00 52 1009.8
20260504010130 65 140 3.0 8.0 0.00 0.00 0.00 52 1009.8
20260504005632 66 161 3.0 8.0 0.00 0.00 0.00 52 1009.9
20260504005129 66 140 4.0 8.0 0.00 0.00 0.00 51 1009.8
20260504004849 66 150 5.0 12.0 0.00 0.00 0.00 51 1009.9
20260504004129 66 178 4.0 12.0 0.00 0.00 0.00 51 1009.8
20260504003629 66 157 4.0 11.0 0.00 0.00 0.00 50 1010.1
20260504003130 66 149 4.0 11.0 0.00 0.00 0.00 51 1010.0
20260504002622 67 150 4.0 11.0 0.00 0.00 0.00 50 1009.9
20260504002124 67 148 4.0 12.0 0.00 0.00 0.00 50 1010.0
20260504001616 67 139 4.0 12.0 0.00 0.00 0.00 49 1010.2
20260504001120 67 161 4.0 14.0 0.00 0.00 0.00 49 1010.2
20260504000613 68 155 4.0 14.0 0.00 0.00 0.00 48 1010.4
20260504000340 68 169 4.0 12.0 0.00 0.00 0.00 48 1010.4
20260503235610 68 160 5.0 12.0 0.00 0.00 0.00 48 1010.4
20260503235109 68 146 5.0 15.0 0.00 0.00 0.00 48 1010.4
20260503234609 68 161 5.0 15.0 0.00 0.00 0.00 48 1010.4
20260503234105 68 101 5.0 15.0 0.00 0.00 0.00 47 1010.5
20260503233605 69 113 3.0 15.0 0.00 0.00 0.00 47 1010.5
20260503233059 69 159 3.0 14.0 0.00 0.00 0.00 48 1010.5
20260503232601 69 156 4.0 15.0 0.00 0.00 0.00 47 1010.5
20260503232101 69 195 5.0 15.0 0.00 0.00 0.00 47 1010.6
20260503231601 69 161 3.0 12.0 0.00 0.00 0.00 47 1010.6
20260503231057 69 302 3.0 11.0 0.00 0.00 0.00 47 1010.6
20260503230558 69 192 4.0 13.0 0.00 0.00 0.00 46 1010.6
20260503230051 69 196 4.0 13.0 0.00 0.00 0.00 45 1010.8
20260503225816 69 163 5.0 13.0 0.00 0.00 0.00 45 1010.7
20260503225053 70 150 5.0 13.0 0.00 0.00 0.00 46 1010.7
20260503224554 69 267 4.0 18.0 0.00 0.00 0.00 45 1010.6
20260503224314 69 121 5.0 18.0 0.00 0.00 0.00 45 1010.6
20260503223549 69 163 6.0 18.0 0.00 0.00 0.00 45 1010.6
20260503223050 69 292 5.0 18.0 0.00 0.00 0.00 45 1010.6
20260503222548 70 142 4.0 15.0 0.00 0.00 0.00 45 1010.5
20260503222044 69 159 5.0 15.0 0.00 0.00 0.00 46 1010.5
20260503221544 69 171 6.0 15.0 0.00 0.00 0.00 46 1010.5
20260503221518 69 186 7.0 15.0 0.00 0.00 0.00 45 1010.6
20260503220536 69 174 7.0 18.0 0.00 0.00 0.00 45 1010.6
20260503220030 69 185 6.0 18.0 0.00 0.00 0.00 44 1010.7
20260503215530 69 250 5.0 12.0 0.00 0.00 0.00 44 1010.8
20260503215031 69 134 6.0 16.0 0.00 0.00 0.00 44 1010.8
20260503214801 69 178 6.0 16.0 0.00 0.00 0.00 45 1010.9
20260503214025 69 188 5.0 16.0 0.00 0.00 0.00 44 1011.0
20260503213522 70 327 5.0 12.0 0.00 0.00 0.00 45 1011.1
20260503213235 69 117 5.0 14.0 0.00 0.00 0.00 45 1011.1
20260503212516 69 148 5.0 14.0 0.00 0.00 0.00 46 1011.2
20260503212012 69 155 4.0 13.0 0.00 0.00 0.00 44 1011.2
20260503211516 69 120 6.0 19.0 0.00 0.00 0.00 45 1011.3
20260503211010 69 194 7.0 19.0 0.00 0.00 0.00 45 1011.3
20260503210508 69 167 7.0 18.0 0.00 0.00 0.00 46 1011.5
20260503210005 69 188 7.0 16.0 0.00 0.00 0.00 45 1011.5
20260503205502 69 152 6.0 15.0 0.00 0.00 0.00 47 1011.8
20260503205450 69 213 5.0 15.0 0.00 0.00 0.00 44 1011.9
20260503204722 69 123 5.0 14.0 0.00 0.00 0.00 46 1012.0
20260503204217 69 150 5.0 14.0 0.00 0.00 0.00 46 1012.2
20260503203455 69 224 4.0 16.0 0.00 0.00 0.00 46 1012.3
20260503203211 69 180 4.0 17.0 0.00 0.00 0.00 46 1012.5
20260503202448 69 146 5.0 17.0 0.00 0.00 0.00 44 1012.5
20260503201943 69 144 6.0 17.0 0.00 0.00 0.00 45 1012.6
20260503201441 69 103 6.0 17.0 0.00 0.00 0.00 43 1012.6
20260503200938 68 169 6.0 14.0 0.00 0.00 0.00 45 1012.8
20260503200438 68 166 6.0 17.0 0.00 0.00 0.00 44 1012.8
20260503195932 68 185 7.0 18.0 0.00 0.00 0.00 44 1013.0
20260503195432 68 140 6.0 18.0 0.00 0.00 0.00 46 1013.2
20260503195157 68 238 6.0 18.0 0.00 0.00 0.00 46 1013.2
20260503194426 68 150 7.0 19.0 0.00 0.00 0.00 47 1013.2
20260503193927 68 138 6.0 19.0 0.00 0.00 0.00 45 1013.4
20260503193426 69 256 6.0 15.0 0.00 0.00 0.00 49 1013.7
20260503192920 67 177 7.0 17.0 0.00 0.00 0.00 49 1014.3
20260503192420 67 142 5.0 17.0 0.00 0.00 0.00 49 1014.2
20260503191920 67 265 6.0 16.0 0.00 0.00 0.00 46 1014.4
20260503191414 67 185 6.0 16.0 0.00 0.00 0.00 49 1014.5
20260503190914 67 294 4.0 16.0 0.00 0.00 0.00 46 1014.7
20260503190636 67 252 5.0 13.0 0.00 0.00 0.00 46 1014.9
20260503185908 67 208 6.0 14.0 0.00 0.00 0.00 49 1014.9
20260503185409 67 255 6.0 14.0 0.00 0.00 0.00 48 1015.0
20260503184908 67 257 7.0 17.0 0.00 0.00 0.00 49 1014.9
20260503184401 66 186 7.0 17.0 0.00 0.00 0.00 46 1015.0
20260503183902 67 157 5.0 14.0 0.00 0.00 0.00 48 1015.0
20260503183626 67 238 5.0 17.0 0.00 0.00 0.00 49 1015.1
20260503182856 67 233 5.0 17.0 0.00 0.00 0.00 50 1015.3
20260503182356 66 237 7.0 18.0 0.00 0.00 0.00 48 1015.5
20260503181855 65 183 7.0 18.0 0.00 0.00 0.00 48 1015.6
20260503181350 66 163 6.0 16.0 0.00 0.00 0.00 48 1015.8
20260503180850 66 178 5.0 15.0 0.00 0.00 0.00 49 1016.0
20260503180349 66 177 5.0 15.0 0.00 0.00 0.00 50 1016.1
20260503175844 66 255 6.0 15.0 0.00 0.00 0.00 49 1016.3
20260503175344 65 188 6.0 18.0 0.00 0.00 0.00 50 1016.4
20260503174844 65 254 6.0 18.0 0.00 0.00 0.00 51 1016.7
20260503174338 64 142 6.0 19.0 0.00 0.00 0.00 50 1016.7
20260503173838 65 252 5.0 19.0 0.00 0.00 0.00 50 1017.0
20260503173337 65 218 5.0 15.0 0.00 0.00 0.00 50 1017.1
20260503172832 66 270 4.0 15.0 0.00 0.00 0.00 54 1017.1
20260503172332 65 230 6.0 16.0 0.00 0.00 0.00 52 1017.2
20260503171832 64 224 6.0 16.0 0.00 0.00 0.00 53 1017.4
20260503171326 63 180 6.0 14.0 0.00 0.00 0.00 52 1017.5
20260503170826 63 267 6.0 14.0 0.00 0.00 0.00 52 1017.5
20260503170326 63 175 5.0 14.0 0.00 0.00 0.00 53 1017.5
20260503150741 58 173 3.0 13.0 0.00 0.02 0.00 60 1018.7
20260503150242 58 165 4.0 13.0 0.00 0.02 0.00 60 1018.8
20260503140231 55 170 4.0 11.0 0.00 0.02 0.00 63 1019.1